Weather History for KPKD - November, 2013

Change the Weather History Date:

Sunday, November 3, 2013

  Actual Average Record
Temperature  
Mean Temperature 41 °F -  
Max Temperature 52 °F 41 °F 69 °F (1978)
Min Temperature 30 °F 24 °F -8 °F (1951)
Degree Days  
Heating Degree Days 24    
Moisture  
Dew Point 31 °F    
Average Humidity 67    
Maximum Humidity 96    
Minimum Humidity 44    
Precipitation  
Precipitation 0.00 in - - ()
Sea Level Pressure  
Sea Level Pressure 29.90 in    
Wind  
Wind Speed 13 mph (SE)    
Max Wind Speed 28 mph    
Max Gust Speed 38 mph    
Visibility 10 miles    
Events      
Averages and records for this station are not official NWS values.
T = Trace of Precipitation, MM = Missing Value Source: NWS Daily Summary

Daily Weather History Graph

Daily Weather History Graph

Search for Another Location

Airport or City:

Trip Planner

Search our weather history database for the weather conditions in past years. The results will help you decide how hot, cold, wet, or windy it might be!

Date:

Astronomy

Nov. 03, 2013 Rise Set
Actual Time 7:06 AM CST 5:00 PM CST
Civil Twilight 6:34 AM CST 5:32 PM CST
Nautical Twilight 5:58 AM CST 6:08 PM CST
Astronomical Twilight 5:22 AM CST 6:44 PM CST
Moon 7:12 AM CST (11/3) 5:14 PM CST (11/3)
Length of Visible Light 10h 58m
Length of Day
9h 54m
New Moon, 0% of the Moon is Illuminated
Nov 3
New Moon
Nov 9
First Quarter
Nov 17
Full
Nov 25
Last Quarter
Dec 2
New

Hourly Weather History & Observations

Time (CST) Temp. Windchill Dew Point Humidity Pressure Visibility Wind Dir Wind Speed Gust Speed Precip Events Conditions
12:53 AM 30.9 °F 25.2 °F 30.0 °F 96% 30.06 in 10.0 mi SSE 5.8 mph - N/A   Clear
1:53 AM 33.1 °F 26.1 °F 30.9 °F 92% 30.05 in 10.0 mi SE 8.1 mph - N/A   Clear
1:53 AM 32.0 °F 24.8 °F 30.0 °F 92% 30.05 in 10.0 mi SE 8.1 mph - N/A   Clear
2:53 AM 34.0 °F 27.2 °F 30.9 °F 89% 30.04 in 10.0 mi SE 8.1 mph - N/A   Clear
3:53 AM 35.1 °F 28.6 °F 32.0 °F 89% 30.02 in 10.0 mi SE 8.1 mph - N/A   Partly Cloudy
4:53 AM 37.0 °F 30.4 °F 33.1 °F 86% 30.01 in 10.0 mi SE 9.2 mph - N/A   Scattered Clouds
5:53 AM 37.9 °F 30.0 °F 33.1 °F 83% 29.99 in 10.0 mi SE 12.7 mph - N/A   Clear
6:53 AM 37.9 °F 29.6 °F 32.0 °F 79% 29.99 in 10.0 mi SE 13.8 mph - N/A   Clear
7:53 AM 37.0 °F 28.5 °F 32.0 °F 82% 29.98 in 10.0 mi SE 13.8 mph - N/A   Clear
8:53 AM 39.0 °F 31.0 °F 32.0 °F 76% 29.97 in 10.0 mi SE 13.8 mph 21.9 mph N/A   Mostly Cloudy
9:53 AM 41.0 °F 33.1 °F 32.0 °F 70% 29.95 in 10.0 mi SE 15.0 mph 21.9 mph N/A   Overcast
10:53 AM 44.1 °F 36.2 °F 32.0 °F 63% 29.92 in 10.0 mi SE 18.4 mph 26.5 mph N/A   Clear
11:53 AM 48.0 °F - 32.0 °F 54% 29.87 in 10.0 mi SE 23.0 mph 31.1 mph N/A   Clear
12:53 PM 48.9 °F - 30.9 °F 50% 29.82 in 10.0 mi SE 26.5 mph 36.8 mph N/A   Clear
1:53 PM 52.0 °F - 32.0 °F 47% 29.80 in 10.0 mi SSE 25.3 mph 38.0 mph N/A   Clear
2:53 PM 51.1 °F - 30.0 °F 44% 29.79 in 10.0 mi SSE 27.6 mph 35.7 mph N/A   Clear
3:53 PM 50.0 °F - 30.0 °F 46% 29.80 in 10.0 mi SSE 26.5 mph 34.5 mph N/A   Clear
4:53 PM 48.9 °F - 30.0 °F 48% 29.79 in 10.0 mi SSE 25.3 mph 31.1 mph N/A   Clear
5:53 PM 48.0 °F - 30.0 °F 50% 29.80 in 10.0 mi SSE 19.6 mph 27.6 mph N/A   Clear
6:53 PM 48.0 °F - 30.0 °F 50% 29.80 in 10.0 mi SSE 16.1 mph 29.9 mph N/A   Clear
7:53 PM 48.0 °F - 30.0 °F 50% 29.80 in 10.0 mi SSE 18.4 mph 29.9 mph N/A   Mostly Cloudy
8:53 PM 46.9 °F - 30.9 °F 54% 29.79 in 10.0 mi SSE 23.0 mph 29.9 mph N/A   Overcast
9:53 PM 46.9 °F - 30.9 °F 54% 29.79 in 10.0 mi SSE 19.6 mph 32.2 mph N/A   Overcast
10:53 PM 46.9 °F - 32.0 °F 56% 29.78 in 10.0 mi SSE 19.6 mph 29.9 mph N/A   Overcast